Location: Newark
(43.0000°N, 1.6781°W)
Time: 09:22:33
(UTC+00:00)

AO-7 - Pass Details

Date: 07 December 2022
Orbit: 1440 x 1459 km, 101.9° (Epoch: 28 January)

Event Time Altitude Azimuth Distance (km) Brightness Sun altitude
Rises 04:43:12 0° 19° (NNE) 4,545 ? -28.6°
Reaches altitude 10° 04:46:01 10° 22° (NNE) 3,565 ? -28.1°
Maximum altitude 04:54:19 71° 106° (ESE) 1,521 ? -26.6°
Drops below altitude 10° 05:02:35 10° 190° (S) 3,558 ? -25.1°
Sets 05:05:23 0° 192° (SSW) 4,536 ? -24.6°
